Time,TemperatureF,DewpointF,PressureIn,WindDirection,WindDirectionDegrees,WindSpeedMPH,WindSpeedGustMPH,Humidity,HourlyPrecipIn,Conditions,Clouds,dailyrainin,SoftwareType,DateUTC
2013-09-05 00:02:00,59.1,57.9,30.90,NW,309,0.0,0.0,96,0.00,CLR,CLR,0.00,WeatherDisplay:10.37,2013-09-05 04:02:00,
2013-09-05 00:07:00,59.0,57.9,30.90,NW,309,0.0,0.0,96,0.00,CLR,CLR,0.00,WeatherDisplay:10.37,2013-09-05 04:07:00,
2013-09-05 00:12:00,58.9,58.1,30.90,NW,309,0.0,0.0,97,0.00,CLR,CLR,0.00,WeatherDisplay:10.37,2013-09-05 04:12:00,
2013-09-05 00:17:00,59.0,58.1,30.90,NW,309,0.0,0.0,97,0.00,CLR,CLR,0.00,WeatherDisplay:10.37,2013-09-05 04:17:00,
2013-09-05 00:22:00,58.9,58.1,30.90,NW,309,0.0,0.0,97,0.00,CLR,CLR,0.00,WeatherDisplay:10.37,2013-09-05 04:22:00,
2013-09-05 00:27:00,58.9,58.1,30.90,NW,309,0.0,0.0,97,0.00,CLR,CLR,0.00,WeatherDisplay:10.37,2013-09-05 04:27:00,
2013-09-05 00:32:00,58.9,58.1,30.90,NW,309,0.0,0.0,97,0.00,CLR,CLR,0.00,WeatherDisplay:10.37,2013-09-05 04:32:00,
2013-09-05 00:37:00,58.9,58.1,30.90,NW,309,0.0,0.0,97,0.00,CLR,CLR,0.00,WeatherDisplay:10.37,2013-09-05 04:37:00,
2013-09-05 00:42:00,58.9,58.1,30.90,NW,309,0.0,0.0,97,0.00,CLR,CLR,0.00,WeatherDisplay:10.37,2013-09-05 04:42:00,
2013-09-05 00:47:00,58.8,58.0,30.90,NW,309,0.0,0.0,97,0.00,CLR,CLR,0.00,WeatherDisplay:10.37,2013-09-05 04:47:00,
2013-09-05 00:52:00,58.8,58.0,30.90,NW,309,0.0,0.0,97,0.00,CLR,CLR,0.00,WeatherDisplay:10.37,2013-09-05 04:52:00,
2013-09-05 00:57:00,58.7,57.9,30.90,NW,309,0.0,0.0,97,0.00,CLR,CLR,0.00,WeatherDisplay:10.37,2013-09-05 04:57:00,
2013-09-05 01:02:00,58.7,57.9,30.90,NW,309,0.0,0.0,97,0.00,CLR,CLR,0.00,WeatherDisplay:10.37,2013-09-05 05:02:00,
2013-09-05 01:07:00,58.6,57.8,30.90,NW,309,0.0,0.0,97,0.00,CLR,CLR,0.00,WeatherDisplay:10.37,2013-09-05 05:07:00,
2013-09-05 01:12:00,58.6,57.8,30.90,NW,309,0.0,0.0,97,0.00,CLR,CLR,0.00,WeatherDisplay:10.37,2013-09-05 05:12:00,
2013-09-05 01:17:00,58.8,58.0,30.90,NW,309,0.0,0.0,97,0.00,CLR,CLR,0.00,WeatherDisplay:10.37,2013-09-05 05:17:00,
2013-09-05 01:22:00,59.0,58.4,30.90,NW,309,0.0,0.0,98,0.00,CLR,CLR,0.00,WeatherDisplay:10.37,2013-09-05 05:22:00,
2013-09-05 01:27:00,59.2,58.6,30.90,NW,309,0.0,0.0,98,0.00,CLR,CLR,0.00,WeatherDisplay:10.37,2013-09-05 05:27:00,
2013-09-05 01:32:00,59.3,58.7,30.90,NW,309,0.0,0.0,98,0.00,CLR,CLR,0.00,WeatherDisplay:10.37,2013-09-05 05:32:00,
2013-09-05 01:37:00,59.5,58.9,30.90,NW,309,0.0,0.0,98,0.00,CLR,CLR,0.00,WeatherDisplay:10.37,2013-09-05 05:37:00,
2013-09-05 01:42:00,59.8,59.2,30.90,NW,309,0.0,0.0,98,0.00,CLR,CLR,0.00,WeatherDisplay:10.37,2013-09-05 05:42:00,
2013-09-05 01:47:00,60.0,59.4,30.90,NW,309,0.0,0.0,98,0.00,CLR,CLR,0.00,WeatherDisplay:10.37,2013-09-05 05:47:00,
2013-09-05 01:52:00,60.2,59.6,30.90,NW,309,0.0,0.0,98,0.00,CLR,CLR,0.00,WeatherDisplay:10.37,2013-09-05 05:52:00,
2013-09-05 01:57:00,60.4,59.8,30.90,NW,309,0.0,0.0,98,0.00,CLR,CLR,0.00,WeatherDisplay:10.37,2013-09-05 05:57:00,
2013-09-05 02:02:00,60.4,59.8,30.90,NW,309,0.0,0.0,98,0.00,CLR,CLR,0.00,WeatherDisplay:10.37,2013-09-05 06:02:00,
2013-09-05 02:07:00,60.5,59.9,30.90,NW,309,0.0,0.0,98,0.00,CLR,CLR,0.00,WeatherDisplay:10.37,2013-09-05 06:07:00,
2013-09-05 02:12:00,60.5,59.9,30.91,NW,309,0.0,0.0,98,0.00,CLR,CLR,0.00,WeatherDisplay:10.37,2013-09-05 06:12:00,
2013-09-05 02:17:00,60.7,60.1,30.91,NW,309,0.0,0.0,98,0.00,CLR,CLR,0.00,WeatherDisplay:10.37,2013-09-05 06:17:00,
2013-09-05 02:22:00,60.7,60.1,30.91,NW,309,0.0,0.0,98,0.00,CLR,CLR,0.00,WeatherDisplay:10.37,2013-09-05 06:22:00,
2013-09-05 02:27:00,60.7,59.8,30.91,NW,309,0.0,0.0,97,0.00,CLR,CLR,0.00,WeatherDisplay:10.37,2013-09-05 06:27:00,
2013-09-05 02:32:00,60.7,59.8,30.91,NW,309,0.0,0.0,97,0.00,CLR,CLR,0.00,WeatherDisplay:10.37,2013-09-05 06:32:00,
2013-09-05 02:37:00,60.7,59.8,30.91,NW,309,0.0,0.0,97,0.00,CLR,CLR,0.00,WeatherDisplay:10.37,2013-09-05 06:37:00,
2013-09-05 02:42:00,60.6,59.7,30.91,NW,309,0.0,0.0,97,0.00,CLR,CLR,0.00,WeatherDisplay:10.37,2013-09-05 06:42:00,
2013-09-05 02:47:00,60.6,59.7,30.91,NW,309,0.0,0.0,97,0.00,CLR,CLR,0.00,WeatherDisplay:10.37,2013-09-05 06:47:00,
2013-09-05 02:52:00,60.6,59.7,30.92,NW,309,0.0,1.0,97,0.00,CLR,CLR,0.00,WeatherDisplay:10.37,2013-09-05 06:52:00,
2013-09-05 02:57:00,60.7,60.1,30.92,NW,309,0.0,0.0,98,0.00,CLR,CLR,0.00,WeatherDisplay:10.37,2013-09-05 06:57:00,
2013-09-05 03:02:00,60.9,60.3,30.92,NW,309,0.0,1.0,98,0.00,CLR,CLR,0.00,WeatherDisplay:10.37,2013-09-05 07:02:00,
2013-09-05 03:07:00,61.2,60.6,30.92,NW,309,0.0,3.0,98,0.00,CLR,CLR,0.00,WeatherDisplay:10.37,2013-09-05 07:07:00,
2013-09-05 03:12:00,61.8,61.2,30.92,NW,309,1.0,4.0,98,0.00,CLR,CLR,0.00,WeatherDisplay:10.37,2013-09-05 07:12:00,
2013-09-05 03:17:00,62.5,61.9,30.92,NW,313,0.0,3.0,98,0.00,CLR,CLR,0.00,WeatherDisplay:10.37,2013-09-05 07:17:00,
2013-09-05 03:22:00,63.1,62.8,30.92,NW,318,0.0,3.0,99,0.00,CLR,CLR,0.00,WeatherDisplay:10.37,2013-09-05 07:22:00,
2013-09-05 03:27:00,63.4,62.8,30.92,NW,318,0.0,1.0,98,0.00,CLR,CLR,0.00,WeatherDisplay:10.37,2013-09-05 07:27:00,
2013-09-05 03:32:00,63.6,63.0,30.92,NW,318,0.0,0.0,98,0.00,CLR,CLR,0.00,WeatherDisplay:10.37,2013-09-05 07:32:00,
2013-09-05 03:37:00,63.7,63.1,30.92,NW,317,1.0,4.0,98,0.00,CLR,CLR,0.00,WeatherDisplay:10.37,2013-09-05 07:37:00,
2013-09-05 03:42:00,63.8,63.3,30.92,NW,323,1.0,5.0,98,0.00,CLR,CLR,0.00,WeatherDisplay:10.37,2013-09-05 07:42:00,
2013-09-05 03:47:00,63.9,63.0,30.92,NNW,334,0.0,5.0,97,0.00,CLR,CLR,0.00,WeatherDisplay:10.37,2013-09-05 07:47:00,
2013-09-05 03:52:00,63.9,62.4,30.92,NNW,331,3.0,6.0,95,0.00,CLR,CLR,0.00,WeatherDisplay:10.37,2013-09-05 07:52:00,
2013-09-05 03:57:00,63.9,62.2,30.92,NW,326,2.0,6.0,94,0.00,CLR,CLR,0.00,WeatherDisplay:10.37,2013-09-05 07:57:00,
2013-09-05 04:02:00,64.0,61.9,30.93,NW,321,1.0,3.0,93,0.00,CLR,CLR,0.00,WeatherDisplay:10.37,2013-09-05 08:02:00,
2013-09-05 04:07:00,64.1,61.4,30.93,NNW,337,0.0,4.0,91,0.00,CLR,CLR,0.00,WeatherDisplay:10.37,2013-09-05 08:07:00,
2013-09-05 04:12:00,64.2,61.2,30.93,North,8,1.0,3.0,90,0.00,CLR,CLR,0.00,WeatherDisplay:10.37,2013-09-05 08:12:00,
2013-09-05 04:17:00,64.3,60.9,30.93,NNW,340,2.0,6.0,89,0.00,CLR,CLR,0.00,WeatherDisplay:10.37,2013-09-05 08:17:00,
2013-09-05 04:22:00,64.3,60.3,30.94,NW,307,1.0,4.0,87,0.00,CLR,CLR,0.00,WeatherDisplay:10.37,2013-09-05 08:22:00,
2013-09-05 04:27:00,64.3,59.7,30.94,North,2,2.0,5.0,85,0.00,CLR,CLR,0.00,WeatherDisplay:10.37,2013-09-05 08:27:00,
2013-09-05 04:32:00,64.5,59.6,30.94,NNE,15,0.0,6.0,84,0.00,CLR,CLR,0.00,WeatherDisplay:10.37,2013-09-05 08:32:00,
2013-09-05 04:37:00,64.6,59.3,30.94,NNE,17,0.0,2.0,83,0.00,CLR,CLR,0.00,WeatherDisplay:10.37,2013-09-05 08:37:00,
2013-09-05 04:42:00,64.6,59.3,30.94,North,352,1.0,6.0,83,0.00,CLR,CLR,0.00,WeatherDisplay:10.37,2013-09-05 08:42:00,
2013-09-05 04:47:00,64.6,58.6,30.95,NNW,346,3.0,5.0,81,0.00,CLR,CLR,0.00,WeatherDisplay:10.37,2013-09-05 08:47:00,
2013-09-05 04:52:00,64.6,58.3,30.95,North,359,1.0,6.0,80,0.00,CLR,CLR,0.00,WeatherDisplay:10.37,2013-09-05 08:52:00,
2013-09-05 04:57:00,64.6,57.9,30.95,North,7,0.0,7.0,79,0.00,CLR,CLR,0.00,WeatherDisplay:10.37,2013-09-05 08:57:00,
2013-09-05 05:02:00,64.5,57.5,30.95,North,7,3.0,6.0,78,0.00,CLR,CLR,0.00,WeatherDisplay:10.37,2013-09-05 09:02:00,
2013-09-05 05:07:00,64.5,57.5,30.96,North,350,1.0,6.0,78,0.00,CLR,CLR,0.00,WeatherDisplay:10.37,2013-09-05 09:07:00,
2013-09-05 05:12:00,64.4,57.0,30.95,NNW,344,1.0,6.0,77,0.00,CLR,CLR,0.00,WeatherDisplay:10.37,2013-09-05 09:12:00,
2013-09-05 05:17:00,64.3,56.9,30.95,NNW,346,0.0,6.0,77,0.00,CLR,CLR,0.00,WeatherDisplay:10.37,2013-09-05 09:17:00,
2013-09-05 05:22:00,64.2,56.8,30.96,North,351,1.0,5.0,77,0.00,CLR,CLR,0.00,WeatherDisplay:10.37,2013-09-05 09:22:00,
2013-09-05 05:27:00,64.0,56.6,30.96,NNW,328,1.0,6.0,77,0.00,CLR,CLR,0.00,WeatherDisplay:10.37,2013-09-05 09:27:00,
2013-09-05 05:32:00,63.8,56.5,30.96,NW,322,0.0,1.0,77,0.00,CLR,CLR,0.00,WeatherDisplay:10.37,2013-09-05 09:32:00,
2013-09-05 05:37:00,63.7,56.3,30.96,NNW,327,0.0,7.0,77,0.00,CLR,CLR,0.00,WeatherDisplay:10.37,2013-09-05 09:37:00,
2013-09-05 05:42:00,63.5,56.5,30.97,NW,323,0.0,7.0,78,0.00,CLR,CLR,0.00,WeatherDisplay:10.37,2013-09-05 09:42:00,
2013-09-05 05:47:00,63.5,56.5,30.97,NW,321,0.0,4.0,78,0.00,CLR,CLR,0.00,WeatherDisplay:10.37,2013-09-05 09:47:00,
2013-09-05 05:52:00,63.4,56.4,30.97,NW,322,0.0,3.0,78,0.00,CLR,CLR,0.00,WeatherDisplay:10.37,2013-09-05 09:52:00,
2013-09-05 05:57:00,63.4,56.0,30.97,NW,325,0.0,3.0,77,0.00,CLR,CLR,0.00,WeatherDisplay:10.37,2013-09-05 09:57:00,
2013-09-05 06:02:00,63.3,56.3,30.97,NW,326,0.0,3.0,78,0.00,CLR,CLR,0.00,WeatherDisplay:10.37,2013-09-05 10:02:00,
2013-09-05 06:07:00,63.2,56.6,30.97,NW,326,0.0,1.0,79,0.00,CLR,CLR,0.00,WeatherDisplay:10.37,2013-09-05 10:07:00,
2013-09-05 06:12:00,63.0,56.0,30.98,NW,326,0.0,1.0,78,0.00,CLR,CLR,0.00,WeatherDisplay:10.37,2013-09-05 10:12:00,
2013-09-05 06:17:00,62.9,56.7,30.98,NNW,327,1.0,2.0,80,0.00,CLR,CLR,0.00,WeatherDisplay:10.37,2013-09-05 10:17:00,
2013-09-05 06:22:00,62.9,56.3,30.98,NNW,327,0.0,0.0,79,0.00,CLR,CLR,0.00,WeatherDisplay:10.37,2013-09-05 10:22:00,
2013-09-05 06:27:00,62.8,56.9,30.98,NNW,327,0.0,1.0,81,0.00,CLR,CLR,0.00,WeatherDisplay:10.37,2013-09-05 10:27:00,
2013-09-05 06:32:00,62.7,56.7,30.98,NNW,327,0.0,1.0,81,0.00,CLR,CLR,0.00,WeatherDisplay:10.37,2013-09-05 10:32:00,
2013-09-05 06:37:00,62.5,56.2,30.98,NNW,327,0.0,3.0,80,0.00,CLR,CLR,0.00,WeatherDisplay:10.37,2013-09-05 10:37:00,
2013-09-05 06:42:00,62.4,56.9,30.99,NNW,327,0.0,3.0,82,0.00,CLR,CLR,0.00,WeatherDisplay:10.37,2013-09-05 10:42:00,
2013-09-05 06:47:00,62.3,56.8,30.99,NNW,328,0.0,4.0,82,0.00,CLR,CLR,0.00,WeatherDisplay:10.37,2013-09-05 10:47:00,
2013-09-05 06:52:00,62.3,56.4,30.99,NNW,348,0.0,5.0,81,0.00,CLR,CLR,0.00,WeatherDisplay:10.37,2013-09-05 10:52:00,
2013-09-05 06:57:00,62.3,56.7,30.99,North,5,0.0,1.0,82,0.00,CLR,CLR,0.00,WeatherDisplay:10.37,2013-09-05 10:57:00,
2013-09-05 07:02:00,62.3,56.7,30.99,North,5,0.0,0.0,82,0.00,CLR,CLR,0.00,WeatherDisplay:10.37,2013-09-05 11:02:00,
2013-09-05 07:07:00,62.2,57.0,30.99,North,5,1.0,3.0,83,0.00,CLR,CLR,0.00,WeatherDisplay:10.37,2013-09-05 11:07:00,
2013-09-05 07:12:00,62.1,56.9,30.99,North,5,0.0,0.0,83,0.00,CLR,CLR,0.00,WeatherDisplay:10.37,2013-09-05 11:12:00,
2013-09-05 07:17:00,62.1,56.9,31.00,North,5,0.0,1.0,83,0.00,CLR,CLR,0.00,WeatherDisplay:10.37,2013-09-05 11:17:00,
2013-09-05 07:22:00,62.0,56.8,31.00,North,5,0.0,1.0,83,0.00,CLR,CLR,0.00,WeatherDisplay:10.37,2013-09-05 11:22:00,
2013-09-05 07:27:00,62.0,57.1,31.00,North,5,0.0,0.0,84,0.00,CLR,CLR,0.00,WeatherDisplay:10.37,2013-09-05 11:27:00,
2013-09-05 07:32:00,61.9,56.7,31.00,North,5,0.0,3.0,83,0.00,CLR,CLR,0.00,WeatherDisplay:10.37,2013-09-05 11:32:00,
2013-09-05 07:37:00,61.9,56.7,31.00,North,5,0.0,2.0,83,0.00,CLR,CLR,0.00,WeatherDisplay:10.37,2013-09-05 11:37:00,
2013-09-05 07:42:00,61.9,57.0,31.00,North,5,1.0,3.0,84,0.00,CLR,CLR,0.00,WeatherDisplay:10.37,2013-09-05 11:42:00,
2013-09-05 07:47:00,61.8,56.9,31.00,North,4,0.0,4.0,84,0.00,CLR,CLR,0.00,WeatherDisplay:10.37,2013-09-05 11:47:00,
2013-09-05 07:52:00,61.8,56.6,31.00,North,356,0.0,5.0,83,0.00,CLR,CLR,0.00,WeatherDisplay:10.37,2013-09-05 11:52:00,
2013-09-05 07:57:00,61.9,56.7,31.00,NNW,347,0.0,1.0,83,0.00,CLR,CLR,0.00,WeatherDisplay:10.37,2013-09-05 11:57:00,
2013-09-05 08:02:00,61.9,56.7,31.01,NNW,346,0.0,1.0,83,0.00,CLR,CLR,0.00,WeatherDisplay:10.37,2013-09-05 12:02:00,
2013-09-05 08:07:00,62.0,56.8,31.01,NNW,340,0.0,5.0,83,0.00,CLR,CLR,0.00,WeatherDisplay:10.37,2013-09-05 12:07:00,
2013-09-05 08:12:00,62.1,56.9,31.01,NNW,338,0.0,1.0,83,0.00,CLR,CLR,0.00,WeatherDisplay:10.37,2013-09-05 12:12:00,
2013-09-05 08:17:00,62.1,56.9,31.01,NNW,338,0.0,3.0,83,0.00,CLR,CLR,0.00,WeatherDisplay:10.37,2013-09-05 12:17:00,
2013-09-05 08:22:00,62.1,56.9,31.01,NNW,339,0.0,2.0,83,0.00,CLR,CLR,0.00,WeatherDisplay:10.37,2013-09-05 12:22:00,
2013-09-05 08:27:00,62.1,56.9,31.01,NNW,340,0.0,3.0,83,0.00,CLR,CLR,0.00,WeatherDisplay:10.37,2013-09-05 12:27:00,
2013-09-05 08:32:00,62.2,57.0,31.01,NNW,333,0.0,5.0,83,0.00,CLR,CLR,0.00,WeatherDisplay:10.37,2013-09-05 12:32:00,
2013-09-05 08:37:00,62.3,56.7,31.01,North,357,1.0,7.0,82,0.00,CLR,CLR,0.00,WeatherDisplay:10.37,2013-09-05 12:37:00,
2013-09-05 08:42:00,62.5,56.6,31.00,North,359,2.0,7.0,81,0.00,CLR,CLR,0.00,WeatherDisplay:10.37,2013-09-05 12:42:00,
2013-09-05 08:47:00,62.6,56.7,31.00,NNW,344,1.0,7.0,81,0.00,CLR,CLR,0.00,WeatherDisplay:10.37,2013-09-05 12:47:00,
2013-09-05 08:52:00,62.8,56.9,31.00,North,351,1.0,7.0,81,0.00,CLR,CLR,0.00,WeatherDisplay:10.37,2013-09-05 12:52:00,
2013-09-05 08:57:00,63.1,56.8,31.00,North,352,2.0,6.0,80,0.00,CLR,CLR,0.00,WeatherDisplay:10.37,2013-09-05 12:57:00,
2013-09-05 09:02:00,63.4,57.1,31.01,NNW,344,2.0,5.0,80,0.00,CLR,CLR,0.00,WeatherDisplay:10.37,2013-09-05 13:02:00,
2013-09-05 09:07:00,63.7,56.7,31.01,NNE,12,3.0,8.0,78,0.00,CLR,CLR,0.00,WeatherDisplay:10.37,2013-09-05 13:07:00,
2013-09-05 09:12:00,63.9,57.3,31.01,NNW,344,0.0,7.0,79,0.00,CLR,CLR,0.00,WeatherDisplay:10.37,2013-09-05 13:12:00,
2013-09-05 09:17:00,64.0,57.0,31.01,NW,321,1.0,4.0,78,0.00,CLR,CLR,0.00,WeatherDisplay:10.37,2013-09-05 13:17:00,
2013-09-05 09:22:00,64.0,57.0,31.01,North,0,5.0,10.0,78,0.00,CLR,CLR,0.00,WeatherDisplay:10.37,2013-09-05 13:22:00,
2013-09-05 09:27:00,64.1,57.1,31.02,North,354,0.0,5.0,78,0.00,CLR,CLR,0.00,WeatherDisplay:10.37,2013-09-05 13:27:00,
2013-09-05 09:32:00,64.1,57.1,31.02,North,351,0.0,6.0,78,0.00,CLR,CLR,0.00,WeatherDisplay:10.37,2013-09-05 13:32:00,
2013-09-05 09:37:00,64.2,57.2,31.02,North,358,2.0,6.0,78,0.00,CLR,CLR,0.00,WeatherDisplay:10.37,2013-09-05 13:37:00,
2013-09-05 09:42:00,64.4,57.4,31.02,NNW,332,3.0,7.0,78,0.00,CLR,CLR,0.00,WeatherDisplay:10.37,2013-09-05 13:42:00,
2013-09-05 09:47:00,64.7,58.0,31.02,NNW,341,1.0,6.0,79,0.00,CLR,CLR,0.00,WeatherDisplay:10.37,2013-09-05 13:47:00,
2013-09-05 09:52:00,64.9,57.6,31.02,NNW,329,6.0,12.0,77,0.00,CLR,CLR,0.00,WeatherDisplay:10.37,2013-09-05 13:52:00,
2013-09-05 09:57:00,65.1,57.3,31.02,NW,319,5.0,8.0,76,0.00,CLR,CLR,0.00,WeatherDisplay:10.37,2013-09-05 13:57:00,
2013-09-05 10:02:00,65.4,57.6,31.02,North,353,2.0,12.0,76,0.00,CLR,CLR,0.00,WeatherDisplay:10.37,2013-09-05 14:02:00,
2013-09-05 10:07:00,65.5,57.4,31.03,North,1,3.0,9.0,75,0.00,CLR,CLR,0.00,WeatherDisplay:10.37,2013-09-05 14:07:00,
2013-09-05 10:12:00,65.7,57.9,31.03,NNW,348,3.0,9.0,76,0.00,CLR,CLR,0.00,WeatherDisplay:10.37,2013-09-05 14:12:00,
2013-09-05 10:17:00,66.1,58.3,31.02,NW,324,0.0,5.0,76,0.00,CLR,CLR,0.00,WeatherDisplay:10.37,2013-09-05 14:17:00,
2013-09-05 10:22:00,66.4,57.9,31.02,NW,311,2.0,9.0,74,0.00,CLR,CLR,0.00,WeatherDisplay:10.37,2013-09-05 14:22:00,
2013-09-05 10:27:00,66.4,59.0,31.02,NW,312,1.0,6.0,77,0.00,CLR,CLR,0.00,WeatherDisplay:10.37,2013-09-05 14:27:00,
2013-09-05 10:32:00,66.0,57.5,31.02,North,350,2.0,5.0,74,0.00,CLR,CLR,0.00,WeatherDisplay:10.37,2013-09-05 14:32:00,
2013-09-05 10:37:00,65.8,56.9,31.02,NNW,333,7.0,10.0,73,0.00,CLR,CLR,0.00,WeatherDisplay:10.37,2013-09-05 14:37:00,
2013-09-05 10:42:00,65.7,57.2,31.02,NNW,333,2.0,9.0,74,0.00,CLR,CLR,0.00,WeatherDisplay:10.37,2013-09-05 14:42:00,
2013-09-05 10:47:00,65.8,56.5,31.02,NW,320,3.0,7.0,72,0.00,CLR,CLR,0.00,WeatherDisplay:10.37,2013-09-05 14:47:00,
2013-09-05 10:52:00,65.7,58.0,31.02,NNW,331,3.0,8.0,76,0.00,CLR,CLR,0.00,WeatherDisplay:10.37,2013-09-05 14:52:00,
2013-09-05 10:57:00,66.3,56.6,31.02,NW,325,5.0,12.0,71,0.00,CLR,CLR,0.00,WeatherDisplay:10.37,2013-09-05 14:57:00,
2013-09-05 11:02:00,66.6,56.9,31.02,NNW,331,2.0,9.0,71,0.00,CLR,CLR,0.00,WeatherDisplay:10.37,2013-09-05 15:02:00,
2013-09-05 11:07:00,66.8,56.7,31.02,NNW,329,7.0,12.0,70,0.00,CLR,CLR,0.00,WeatherDisplay:10.37,2013-09-05 15:07:00,
2013-09-05 11:12:00,67.2,57.4,31.03,NW,314,2.0,10.0,71,0.00,CLR,CLR,0.00,WeatherDisplay:10.37,2013-09-05 15:12:00,
2013-09-05 11:17:00,67.0,56.1,31.03,NW,312,5.0,12.0,68,0.00,CLR,CLR,0.00,WeatherDisplay:10.37,2013-09-05 15:17:00,
2013-09-05 11:22:00,67.1,56.6,31.03,NNW,331,2.0,9.0,69,0.00,CLR,CLR,0.00,WeatherDisplay:10.37,2013-09-05 15:22:00,
2013-09-05 11:27:00,67.6,58.3,31.04,NW,317,3.0,9.0,72,0.00,CLR,CLR,0.00,WeatherDisplay:10.37,2013-09-05 15:27:00,
2013-09-05 11:32:00,68.0,55.8,31.04,NNW,330,5.0,7.0,65,0.00,CLR,CLR,0.00,WeatherDisplay:10.37,2013-09-05 15:32:00,
2013-09-05 11:37:00,68.1,56.7,31.04,NW,325,8.0,12.0,67,0.00,CLR,CLR,0.00,WeatherDisplay:10.37,2013-09-05 15:37:00,
2013-09-05 11:42:00,68.0,55.8,31.04,NW,325,6.0,12.0,65,0.00,CLR,CLR,0.00,WeatherDisplay:10.37,2013-09-05 15:42:00,
2013-09-05 11:47:00,67.8,57.3,31.04,NW,321,2.0,8.0,69,0.00,CLR,CLR,0.00,WeatherDisplay:10.37,2013-09-05 15:47:00,
2013-09-05 11:52:00,67.9,55.3,31.04,NW,316,1.0,10.0,64,0.00,CLR,CLR,0.00,WeatherDisplay:10.37,2013-09-05 15:52:00,
2013-09-05 11:57:00,67.9,55.7,31.04,NNW,347,6.0,9.0,65,0.00,CLR,CLR,0.00,WeatherDisplay:10.37,2013-09-05 15:57:00,
2013-09-05 12:02:00,67.6,55.9,31.04,NW,315,2.0,9.0,66,0.00,CLR,CLR,0.00,WeatherDisplay:10.37,2013-09-05 16:02:00,
2013-09-05 12:07:00,67.6,55.0,31.04,NW,322,7.0,12.0,64,0.00,CLR,CLR,0.00,WeatherDisplay:10.37,2013-09-05 16:07:00,
2013-09-05 12:12:00,67.2,54.6,31.05,NNW,346,7.0,15.0,64,0.00,CLR,CLR,0.00,WeatherDisplay:10.37,2013-09-05 16:12:00,
2013-09-05 12:17:00,67.2,53.7,31.05,NNW,337,7.0,12.0,62,0.00,CLR,CLR,0.00,WeatherDisplay:10.37,2013-09-05 16:17:00,
2013-09-05 12:22:00,67.3,55.1,31.04,NNW,338,5.0,10.0,65,0.00,CLR,CLR,0.00,WeatherDisplay:10.37,2013-09-05 16:22:00,
2013-09-05 12:27:00,67.6,54.6,31.05,NNW,328,5.0,8.0,63,0.00,CLR,CLR,0.00,WeatherDisplay:10.37,2013-09-05 16:27:00,
2013-09-05 12:32:00,67.8,56.4,31.05,NW,318,2.0,9.0,67,0.00,CLR,CLR,0.00,WeatherDisplay:10.37,2013-09-05 16:32:00,
2013-09-05 12:37:00,67.7,55.9,31.05,NW,305,3.0,13.0,66,0.00,CLR,CLR,0.00,WeatherDisplay:10.37,2013-09-05 16:37:00,
2013-09-05 12:42:00,67.7,55.1,31.05,NW,320,5.0,13.0,64,0.00,CLR,CLR,0.00,WeatherDisplay:10.37,2013-09-05 16:42:00,
2013-09-05 12:47:00,67.7,54.2,31.05,North,349,2.0,9.0,62,0.00,CLR,CLR,0.00,WeatherDisplay:10.37,2013-09-05 16:47:00,
2013-09-05 12:52:00,67.9,55.7,31.04,NW,320,3.0,9.0,65,0.00,CLR,CLR,0.00,WeatherDisplay:10.37,2013-09-05 16:52:00,
2013-09-05 12:57:00,68.1,54.1,31.05,NW,314,6.0,13.0,61,0.00,CLR,CLR,0.00,WeatherDisplay:10.37,2013-09-05 16:57:00,
2013-09-05 13:02:00,68.2,53.8,31.05,NW,313,6.0,8.0,60,0.00,CLR,CLR,0.00,WeatherDisplay:10.37,2013-09-05 17:02:00,
2013-09-05 13:07:00,68.3,52.9,31.05,NW,319,2.0,9.0,58,0.00,CLR,CLR,0.00,WeatherDisplay:10.37,2013-09-05 17:07:00,
2013-09-05 13:12:00,68.1,53.7,31.05,North,358,1.0,8.0,60,0.00,CLR,CLR,0.00,WeatherDisplay:10.37,2013-09-05 17:12:00,
2013-09-05 13:17:00,68.2,53.3,31.05,North,4,2.0,7.0,59,0.00,CLR,CLR,0.00,WeatherDisplay:10.37,2013-09-05 17:17:00,
2013-09-05 13:22:00,68.4,52.1,31.05,North,10,5.0,9.0,56,0.00,CLR,CLR,0.00,WeatherDisplay:10.37,2013-09-05 17:22:00,
2013-09-05 13:27:00,68.1,52.8,31.05,North,358,1.0,6.0,58,0.00,CLR,CLR,0.00,WeatherDisplay:10.37,2013-09-05 17:27:00,
2013-09-05 13:32:00,68.3,52.5,31.05,North,349,5.0,9.0,57,0.00,CLR,CLR,0.00,WeatherDisplay:10.37,2013-09-05 17:32:00,
2013-09-05 13:37:00,68.2,52.8,31.05,NNW,330,1.0,10.0,58,0.00,CLR,CLR,0.00,WeatherDisplay:10.37,2013-09-05 17:37:00,
2013-09-05 13:42:00,68.1,54.1,31.05,NNW,335,2.0,9.0,61,0.00,CLR,CLR,0.00,WeatherDisplay:10.37,2013-09-05 17:42:00,
2013-09-05 13:47:00,67.9,53.0,31.05,NNW,341,5.0,9.0,59,0.00,CLR,CLR,0.00,WeatherDisplay:10.37,2013-09-05 17:47:00,
2013-09-05 13:52:00,68.1,52.8,31.05,NNW,346,3.0,7.0,58,0.00,CLR,CLR,0.00,WeatherDisplay:10.37,2013-09-05 17:52:00,
2013-09-05 13:57:00,68.0,51.7,31.05,NW,314,7.0,12.0,56,0.00,CLR,CLR,0.00,WeatherDisplay:10.37,2013-09-05 17:57:00,
2013-09-05 14:02:00,67.9,53.0,31.05,NW,316,0.0,10.0,59,0.00,CLR,CLR,0.00,WeatherDisplay:10.37,2013-09-05 18:02:00,
2013-09-05 14:07:00,68.0,53.1,31.05,NNW,342,5.0,12.0,59,0.00,CLR,CLR,0.00,WeatherDisplay:10.37,2013-09-05 18:07:00,
2013-09-05 14:12:00,68.1,53.2,31.05,NNW,342,6.0,9.0,59,0.00,CLR,CLR,0.00,WeatherDisplay:10.37,2013-09-05 18:12:00,
2013-09-05 14:17:00,68.1,52.8,31.05,NNW,341,5.0,12.0,58,0.00,CLR,CLR,0.00,WeatherDisplay:10.37,2013-09-05 18:17:00,
2013-09-05 14:22:00,68.3,52.9,31.05,North,354,2.0,9.0,58,0.00,CLR,CLR,0.00,WeatherDisplay:10.37,2013-09-05 18:22:00,
2013-09-05 14:27:00,68.4,54.9,31.05,North,1,3.0,8.0,62,0.00,CLR,CLR,0.00,WeatherDisplay:10.37,2013-09-05 18:27:00,
2013-09-05 14:32:00,68.7,51.8,31.05,North,10,5.0,10.0,55,0.00,CLR,CLR,0.00,WeatherDisplay:10.37,2013-09-05 18:32:00,
2013-09-05 14:37:00,68.3,52.0,31.05,North,351,6.0,9.0,56,0.00,CLR,CLR,0.00,WeatherDisplay:10.37,2013-09-05 18:37:00,
2013-09-05 14:42:00,68.0,51.2,31.04,North,356,6.0,13.0,55,0.00,CLR,CLR,0.00,WeatherDisplay:10.37,2013-09-05 18:42:00,
2013-09-05 14:47:00,68.0,52.7,31.05,North,351,6.0,12.0,58,0.00,CLR,CLR,0.00,WeatherDisplay:10.37,2013-09-05 18:47:00,
2013-09-05 14:52:00,68.0,52.7,31.04,North,3,0.0,9.0,58,0.00,CLR,CLR,0.00,WeatherDisplay:10.37,2013-09-05 18:52:00,
2013-09-05 14:57:00,68.3,53.9,31.04,North,353,3.0,12.0,60,0.00,CLR,CLR,0.00,WeatherDisplay:10.37,2013-09-05 18:57:00,
2013-09-05 15:02:00,68.5,53.1,31.04,NNW,339,2.0,9.0,58,0.00,CLR,CLR,0.00,WeatherDisplay:10.37,2013-09-05 19:02:00,
2013-09-05 15:07:00,68.6,52.8,31.05,NNW,329,3.0,10.0,57,0.00,CLR,CLR,0.00,WeatherDisplay:10.37,2013-09-05 19:07:00,
2013-09-05 15:12:00,68.7,52.8,31.04,NW,324,2.0,10.0,57,0.00,CLR,CLR,0.00,WeatherDisplay:10.37,2013-09-05 19:12:00,
2013-09-05 15:17:00,68.7,52.8,31.04,NW,320,3.0,13.0,57,0.00,CLR,CLR,0.00,WeatherDisplay:10.37,2013-09-05 19:17:00,
2013-09-05 15:22:00,68.4,53.1,31.04,NNW,336,3.0,12.0,58,0.00,CLR,CLR,0.00,WeatherDisplay:10.37,2013-09-05 19:22:00,
2013-09-05 15:27:00,68.7,53.3,31.04,NNW,334,3.0,8.0,58,0.00,CLR,CLR,0.00,WeatherDisplay:10.37,2013-09-05 19:27:00,
2013-09-05 15:32:00,68.4,53.1,31.04,NNW,347,2.0,12.0,58,0.00,CLR,CLR,0.00,WeatherDisplay:10.37,2013-09-05 19:32:00,
2013-09-05 15:37:00,68.1,51.8,31.04,NNW,344,6.0,12.0,56,0.00,CLR,CLR,0.00,WeatherDisplay:10.37,2013-09-05 19:37:00,
2013-09-05 15:42:00,67.9,52.6,31.04,North,354,5.0,10.0,58,0.00,CLR,CLR,0.00,WeatherDisplay:10.37,2013-09-05 19:42:00,
2013-09-05 15:47:00,67.9,53.0,31.04,North,359,6.0,10.0,59,0.00,CLR,CLR,0.00,WeatherDisplay:10.37,2013-09-05 19:47:00,
2013-09-05 15:52:00,67.9,53.5,31.04,NNW,341,6.0,12.0,60,0.00,CLR,CLR,0.00,WeatherDisplay:10.37,2013-09-05 19:52:00,
2013-09-05 15:57:00,67.9,53.0,31.04,NNW,330,3.0,8.0,59,0.00,CLR,CLR,0.00,WeatherDisplay:10.37,2013-09-05 19:57:00,
2013-09-05 16:02:00,67.8,53.4,31.04,NNW,347,3.0,7.0,60,0.00,CLR,CLR,0.00,WeatherDisplay:10.37,2013-09-05 20:02:00,
2013-09-05 16:07:00,67.7,52.4,31.04,North,353,5.0,10.0,58,0.00,CLR,CLR,0.00,WeatherDisplay:10.37,2013-09-05 20:07:00,
2013-09-05 16:12:00,67.8,53.9,31.04,NNW,348,7.0,12.0,61,0.00,CLR,CLR,0.00,WeatherDisplay:10.37,2013-09-05 20:12:00,
2013-09-05 16:17:00,67.6,53.6,31.04,NNW,329,2.0,10.0,61,0.00,CLR,CLR,0.00,WeatherDisplay:10.37,2013-09-05 20:17:00,
2013-09-05 16:22:00,67.7,53.3,31.04,NNW,333,3.0,12.0,60,0.00,CLR,CLR,0.00,WeatherDisplay:10.37,2013-09-05 20:22:00,
2013-09-05 16:27:00,67.9,53.0,31.04,NNW,338,3.0,7.0,59,0.00,CLR,CLR,0.00,WeatherDisplay:10.37,2013-09-05 20:27:00,
2013-09-05 16:32:00,68.0,53.6,31.05,North,3,7.0,12.0,60,0.00,CLR,CLR,0.00,WeatherDisplay:10.37,2013-09-05 20:32:00,
2013-09-05 16:37:00,67.9,54.4,31.05,North,359,2.0,9.0,62,0.00,CLR,CLR,0.00,WeatherDisplay:10.37,2013-09-05 20:37:00,
2013-09-05 16:42:00,68.0,53.6,31.05,NNE,13,2.0,7.0,60,0.00,CLR,CLR,0.00,WeatherDisplay:10.37,2013-09-05 20:42:00,
2013-09-05 16:47:00,67.5,53.2,31.05,NNE,24,2.0,7.0,60,0.00,CLR,CLR,0.00,WeatherDisplay:10.37,2013-09-05 20:47:00,
2013-09-05 16:52:00,67.4,52.6,31.05,North,349,5.0,7.0,59,0.00,CLR,CLR,0.00,WeatherDisplay:10.37,2013-09-05 20:52:00,
2013-09-05 16:57:00,67.3,53.8,31.05,NNW,344,1.0,6.0,62,0.00,CLR,CLR,0.00,WeatherDisplay:10.37,2013-09-05 20:57:00,
2013-09-05 17:02:00,67.5,52.7,31.05,NNW,330,2.0,12.0,59,0.00,CLR,CLR,0.00,WeatherDisplay:10.37,2013-09-05 21:02:00,
2013-09-05 17:07:00,67.7,52.9,31.05,NW,323,3.0,8.0,59,0.00,CLR,CLR,0.00,WeatherDisplay:10.37,2013-09-05 21:07:00,
2013-09-05 17:12:00,67.8,52.0,31.05,NNW,346,1.0,4.0,57,0.00,CLR,CLR,0.00,WeatherDisplay:10.37,2013-09-05 21:12:00,
2013-09-05 17:17:00,67.8,52.0,31.05,North,7,5.0,9.0,57,0.00,CLR,CLR,0.00,WeatherDisplay:10.37,2013-09-05 21:17:00,
2013-09-05 17:22:00,67.5,51.8,31.05,North,351,2.0,7.0,57,0.00,CLR,CLR,0.00,WeatherDisplay:10.37,2013-09-05 21:22:00,
2013-09-05 17:27:00,67.2,51.9,31.06,NNW,327,6.0,12.0,58,0.00,CLR,CLR,0.00,WeatherDisplay:10.37,2013-09-05 21:27:00,
2013-09-05 17:32:00,67.1,53.2,31.06,NW,318,1.0,9.0,61,0.00,CLR,CLR,0.00,WeatherDisplay:10.37,2013-09-05 21:32:00,
2013-09-05 17:37:00,66.8,52.0,31.06,North,9,3.0,10.0,59,0.00,CLR,CLR,0.00,WeatherDisplay:10.37,2013-09-05 21:37:00,
2013-09-05 17:42:00,66.6,52.3,31.06,NNW,347,1.0,12.0,60,0.00,CLR,CLR,0.00,WeatherDisplay:10.37,2013-09-05 21:42:00,
2013-09-05 17:47:00,66.6,51.8,31.06,NW,317,3.0,7.0,59,0.00,CLR,CLR,0.00,WeatherDisplay:10.37,2013-09-05 21:47:00,
2013-09-05 17:52:00,66.6,51.8,31.06,North,349,3.0,8.0,59,0.00,CLR,CLR,0.00,WeatherDisplay:10.37,2013-09-05 21:52:00,
2013-09-05 17:57:00,66.5,51.7,31.06,North,7,1.0,5.0,59,0.00,CLR,CLR,0.00,WeatherDisplay:10.37,2013-09-05 21:57:00,
2013-09-05 18:02:00,66.5,51.3,31.07,NNW,342,2.0,7.0,58,0.00,CLR,CLR,0.00,WeatherDisplay:10.37,2013-09-05 22:02:00,
2013-09-05 18:07:00,66.5,52.2,31.07,NW,324,1.0,6.0,60,0.00,CLR,CLR,0.00,WeatherDisplay:10.37,2013-09-05 22:07:00,
2013-09-05 18:12:00,66.5,51.7,31.06,NNW,341,3.0,6.0,59,0.00,CLR,CLR,0.00,WeatherDisplay:10.37,2013-09-05 22:12:00,
2013-09-05 18:17:00,66.3,51.5,31.07,NNW,339,1.0,6.0,59,0.00,CLR,CLR,0.00,WeatherDisplay:10.37,2013-09-05 22:17:00,
2013-09-05 18:22:00,66.4,51.6,31.07,NNW,339,1.0,5.0,59,0.00,CLR,CLR,0.00,WeatherDisplay:10.37,2013-09-05 22:22:00,
2013-09-05 18:27:00,66.3,51.1,31.06,NW,322,1.0,6.0,58,0.00,CLR,CLR,0.00,WeatherDisplay:10.37,2013-09-05 22:27:00,
2013-09-05 18:32:00,66.3,51.0,31.06,NNW,328,1.0,5.0,58,0.00,CLR,CLR,0.00,WeatherDisplay:10.37,2013-09-05 22:32:00,
2013-09-05 18:37:00,66.0,51.3,31.06,NNW,338,1.0,7.0,59,0.00,CLR,CLR,0.00,WeatherDisplay:10.37,2013-09-05 22:37:00,
2013-09-05 18:42:00,65.7,50.5,31.06,NNW,336,0.0,7.0,58,0.00,CLR,CLR,0.00,WeatherDisplay:10.37,2013-09-05 22:42:00,
2013-09-05 18:47:00,65.4,50.3,31.06,North,350,0.0,5.0,58,0.00,CLR,CLR,0.00,WeatherDisplay:10.37,2013-09-05 22:47:00,
2013-09-05 18:52:00,65.3,50.6,31.06,NNE,17,0.0,5.0,59,0.00,CLR,CLR,0.00,WeatherDisplay:10.37,2013-09-05 22:52:00,
2013-09-05 18:57:00,65.2,51.4,31.06,North,10,0.0,2.0,61,0.00,CLR,CLR,0.00,WeatherDisplay:10.37,2013-09-05 22:57:00,
2013-09-05 19:02:00,65.0,51.2,31.06,North,7,0.0,2.0,61,0.00,CLR,CLR,0.00,WeatherDisplay:10.37,2013-09-05 23:02:00,
2013-09-05 19:07:00,64.9,52.0,31.06,North,360,0.0,1.0,63,0.00,CLR,CLR,0.00,WeatherDisplay:10.37,2013-09-05 23:07:00,
2013-09-05 19:12:00,64.7,52.2,31.06,North,360,0.0,0.0,64,0.00,CLR,CLR,0.00,WeatherDisplay:10.37,2013-09-05 23:12:00,
2013-09-05 19:17:00,64.1,52.5,31.06,North,360,0.0,1.0,66,0.00,CLR,CLR,0.00,WeatherDisplay:10.37,2013-09-05 23:17:00,
2013-09-05 19:22:00,63.6,52.9,31.06,North,360,0.0,0.0,68,0.00,CLR,CLR,0.00,WeatherDisplay:10.37,2013-09-05 23:22:00,
2013-09-05 19:27:00,63.2,54.4,31.06,North,360,0.0,0.0,73,0.00,CLR,CLR,0.00,WeatherDisplay:10.37,2013-09-05 23:27:00,
2013-09-05 19:32:00,62.7,53.5,31.06,North,360,0.0,0.0,72,0.00,CLR,CLR,0.00,WeatherDisplay:10.37,2013-09-05 23:32:00,
2013-09-05 19:37:00,62.0,52.8,31.06,North,360,0.0,0.0,72,0.00,CLR,CLR,0.00,WeatherDisplay:10.37,2013-09-05 23:37:00,
2013-09-05 19:42:00,61.3,53.3,31.06,North,360,0.0,0.0,75,0.00,CLR,CLR,0.00,WeatherDisplay:10.37,2013-09-05 23:42:00,
2013-09-05 19:47:00,60.7,54.1,31.06,North,360,0.0,0.0,79,0.00,CLR,CLR,0.00,WeatherDisplay:10.37,2013-09-05 23:47:00,
2013-09-05 19:52:00,60.0,54.5,31.06,North,360,0.0,0.0,82,0.00,CLR,CLR,0.00,WeatherDisplay:10.37,2013-09-05 23:52:00,
2013-09-05 19:57:00,59.3,54.2,31.07,North,360,0.0,0.0,83,0.00,CLR,CLR,0.00,WeatherDisplay:10.37,2013-09-05 23:57:00,
2013-09-05 20:02:00,58.8,54.0,31.07,North,360,0.0,0.0,84,0.00,CLR,CLR,0.00,WeatherDisplay:10.37,2013-09-06 00:02:00,
2013-09-05 20:07:00,58.4,53.6,31.07,North,360,0.0,0.0,84,0.00,CLR,CLR,0.00,WeatherDisplay:10.37,2013-09-06 00:07:00,
2013-09-05 20:12:00,57.9,53.4,31.07,North,360,0.0,0.0,85,0.00,CLR,CLR,0.00,WeatherDisplay:10.37,2013-09-06 00:12:00,
2013-09-05 20:17:00,57.2,53.0,31.07,North,360,0.0,0.0,86,0.00,CLR,CLR,0.00,WeatherDisplay:10.37,2013-09-06 00:17:00,
2013-09-05 20:22:00,56.6,52.7,31.07,North,360,0.0,0.0,87,0.00,CLR,CLR,0.00,WeatherDisplay:10.37,2013-09-06 00:22:00,
2013-09-05 20:27:00,56.0,52.4,31.07,North,360,0.0,0.0,88,0.00,CLR,CLR,0.00,WeatherDisplay:10.37,2013-09-06 00:27:00,
2013-09-05 20:32:00,55.4,52.3,31.07,North,360,0.0,0.0,89,0.00,CLR,CLR,0.00,WeatherDisplay:10.37,2013-09-06 00:32:00,
2013-09-05 20:42:00,54.7,51.8,31.07,North,360,0.0,0.0,90,0.00,CLR,CLR,0.00,WeatherDisplay:10.37,2013-09-06 00:42:00,
2013-09-05 20:47:00,54.2,51.3,31.07,North,360,0.0,0.0,90,0.00,CLR,CLR,0.00,WeatherDisplay:10.37,2013-09-06 00:47:00,
2013-09-05 20:52:00,53.8,51.2,31.07,North,360,0.0,0.0,91,0.00,CLR,CLR,0.00,WeatherDisplay:10.37,2013-09-06 00:52:00,
2013-09-05 20:57:00,53.3,50.8,31.07,North,360,0.0,0.0,91,0.00,CLR,CLR,0.00,WeatherDisplay:10.37,2013-09-06 00:57:00,
2013-09-05 21:02:00,53.0,50.7,31.07,North,360,0.0,0.0,92,0.00,CLR,CLR,0.00,WeatherDisplay:10.37,2013-09-06 01:02:00,
2013-09-05 21:07:00,52.6,50.3,31.07,North,360,0.0,0.0,92,0.00,CLR,CLR,0.00,WeatherDisplay:10.37,2013-09-06 01:07:00,
2013-09-05 21:12:00,52.4,50.1,31.07,North,360,0.0,0.0,92,0.00,CLR,CLR,0.00,WeatherDisplay:10.37,2013-09-06 01:12:00,
2013-09-05 21:17:00,52.3,50.3,31.08,North,360,0.0,0.0,93,0.00,CLR,CLR,0.00,WeatherDisplay:10.37,2013-09-06 01:17:00,
2013-09-05 21:22:00,52.3,50.6,31.08,North,360,0.0,0.0,94,0.00,CLR,CLR,0.00,WeatherDisplay:10.37,2013-09-06 01:22:00,
2013-09-05 21:27:00,52.4,50.7,31.08,North,360,0.0,0.0,94,0.00,CLR,CLR,0.00,WeatherDisplay:10.37,2013-09-06 01:27:00,
2013-09-05 21:32:00,52.3,50.7,31.08,North,360,0.0,0.0,94,0.00,CLR,CLR,0.00,WeatherDisplay:10.37,2013-09-06 01:32:00,
2013-09-05 21:37:00,52.0,50.0,31.08,North,360,0.0,0.0,93,0.00,CLR,CLR,0.00,WeatherDisplay:10.37,2013-09-06 01:37:00,
2013-09-05 21:42:00,51.5,49.8,31.08,North,360,0.0,0.0,94,0.00,CLR,CLR,0.00,WeatherDisplay:10.37,2013-09-06 01:42:00,
2013-09-05 21:47:00,51.3,49.6,31.08,North,360,0.0,0.0,94,0.00,CLR,CLR,0.00,WeatherDisplay:10.37,2013-09-06 01:47:00,
2013-09-05 21:52:00,51.1,49.5,31.08,North,360,0.0,0.0,94,0.00,CLR,CLR,0.00,WeatherDisplay:10.37,2013-09-06 01:52:00,
2013-09-05 21:57:00,50.9,49.2,31.09,North,360,0.0,0.0,94,0.00,CLR,CLR,0.00,WeatherDisplay:10.37,2013-09-06 01:57:00,
2013-09-05 22:02:00,50.7,49.0,31.08,North,360,0.0,0.0,94,0.00,CLR,CLR,0.00,WeatherDisplay:10.37,2013-09-06 02:02:00,
2013-09-05 22:07:00,50.7,49.3,31.09,North,360,0.0,0.0,95,0.00,CLR,CLR,0.00,WeatherDisplay:10.37,2013-09-06 02:07:00,
2013-09-05 22:12:00,50.5,49.2,31.09,North,360,0.0,0.0,95,0.00,CLR,CLR,0.00,WeatherDisplay:10.37,2013-09-06 02:12:00,
2013-09-05 22:17:00,50.5,49.2,31.09,North,360,0.0,0.0,95,0.00,CLR,CLR,0.00,WeatherDisplay:10.37,2013-09-06 02:17:00,
2013-09-05 22:22:00,50.5,49.1,31.09,North,360,0.0,0.0,95,0.00,CLR,CLR,0.00,WeatherDisplay:10.37,2013-09-06 02:22:00,
2013-09-05 22:27:00,50.4,49.0,31.09,North,360,0.0,0.0,95,0.00,CLR,CLR,0.00,WeatherDisplay:10.37,2013-09-06 02:27:00,
2013-09-05 22:32:00,50.3,48.9,31.09,North,360,0.0,0.0,95,0.00,CLR,CLR,0.00,WeatherDisplay:10.37,2013-09-06 02:32:00,
2013-09-05 22:37:00,50.1,48.7,31.09,North,360,0.0,0.0,95,0.00,CLR,CLR,0.00,WeatherDisplay:10.37,2013-09-06 02:37:00,
2013-09-05 22:42:00,49.9,48.5,31.09,North,360,0.0,0.0,95,0.00,CLR,CLR,0.00,WeatherDisplay:10.37,2013-09-06 02:42:00,
2013-09-05 22:47:00,49.9,48.8,31.09,North,360,0.0,0.0,96,0.00,CLR,CLR,0.00,WeatherDisplay:10.37,2013-09-06 02:47:00,
2013-09-05 22:52:00,49.8,48.7,31.09,North,360,0.0,0.0,96,0.00,CLR,CLR,0.00,WeatherDisplay:10.37,2013-09-06 02:52:00,
2013-09-05 22:57:00,49.6,48.5,31.09,North,360,0.0,0.0,96,0.00,CLR,CLR,0.00,WeatherDisplay:10.37,2013-09-06 02:57:00,
2013-09-05 23:02:00,49.5,48.4,31.09,North,360,0.0,0.0,96,0.00,CLR,CLR,0.00,WeatherDisplay:10.37,2013-09-06 03:02:00,
2013-09-05 23:07:00,49.4,48.3,31.10,North,360,0.0,0.0,96,0.00,CLR,CLR,0.00,WeatherDisplay:10.37,2013-09-06 03:07:00,
2013-09-05 23:12:00,49.3,48.2,31.10,North,360,0.0,0.0,96,0.00,CLR,CLR,0.00,WeatherDisplay:10.37,2013-09-06 03:12:00,
2013-09-05 23:17:00,49.2,48.1,31.10,North,360,0.0,0.0,96,0.00,CLR,CLR,0.00,WeatherDisplay:10.37,2013-09-06 03:17:00,
2013-09-05 23:22:00,49.1,48.0,31.09,North,360,0.0,0.0,96,0.00,CLR,CLR,0.00,WeatherDisplay:10.37,2013-09-06 03:22:00,
2013-09-05 23:27:00,49.1,48.0,31.09,North,360,0.0,0.0,96,0.00,CLR,CLR,0.00,WeatherDisplay:10.37,2013-09-06 03:27:00,
2013-09-05 23:32:00,49.2,48.1,31.10,North,360,0.0,0.0,96,0.00,CLR,CLR,0.00,WeatherDisplay:10.37,2013-09-06 03:32:00,
2013-09-05 23:37:00,49.2,48.1,31.09,North,360,0.0,0.0,96,0.00,CLR,CLR,0.00,WeatherDisplay:10.37,2013-09-06 03:37:00,
2013-09-05 23:42:00,49.0,47.9,31.09,North,360,0.0,0.0,96,0.00,CLR,CLR,0.00,WeatherDisplay:10.37,2013-09-06 03:42:00,
2013-09-05 23:47:00,48.8,47.7,31.09,North,360,0.0,0.0,96,0.00,CLR,CLR,0.00,WeatherDisplay:10.37,2013-09-06 03:47:00,
2013-09-05 23:52:00,48.7,47.6,31.09,North,360,0.0,0.0,96,0.00,CLR,CLR,0.00,WeatherDisplay:10.37,2013-09-06 03:52:00,
2013-09-05 23:57:00,48.5,47.4,31.09,North,360,0.0,0.0,96,0.00,CLR,CLR,0.00,WeatherDisplay:10.37,2013-09-06 03:57:00,